Regional Weather Roundup
Issued by NWS Nashville, TN

Home | Current Version | Previous Version | Text Only | Print | Product List | Glossary On
Versions: 1 2 3 4 5 6 7 8 9 10 11 12 13 14 15 16 17 18 19 20 21 22 23 24 25 26 27 28 29 30 31 32 33 34 35 36 37 38 39 40 41 42 43 44 45 46 47 48 49 50
000
ASUS44 KOHX 190615
RWROHX
MIDDLE TENNESSEE HOURLY WEATHER ROUNDUP
NATIONAL WEATHER SERVICE NASHVILLE TN
100 AM CDT FRI SEP 19 2014

NOTE: "FAIR" INDICATES FEW OR NO CLOUDS BELOW 12,000 FEET WITH
NO SIGNIFICANT WEATHER AND/OR OBSTRUCTIONS TO VISIBILITY.

* THESE REPORTS ARE NOT UNDER NWS QUALITY CONTROL AND MAY NOT
  REPORT WEATHER SUCH AS PRECIPITATION AND FOG.


TNZ005>011-023>034-057-059-062>066-078-080-190700
...NORTHERN MIDDLE TENNESSEE...

CITY           SKY/WX    TMP DP  RH WIND       PRES   REMARKS
CLARKSVILLE    CLEAR     60  55  83 CALM      30.05S
CROSSVILLE     CLEAR     60  55  83 CALM      30.09S
GALLATIN         N/A     62  58  87 NE3       30.05S
DICKSON        PTCLDY    61  57  88 CALM      30.04S
LEBANON        PTCLDY    57  57 100 CALM      30.03S
LIVINGSTON     CLEAR     60  56  87 E5        30.07F
NASHVILLE      CLEAR     63  59  87 CALM      30.05R
WEST NASHVILLE   N/A     61  61 100 CALM      30.04S
PORTLAND       CLEAR     59  55  88 CALM      30.05S
SMYRNA         PTCLDY    61  59  93 CALM      30.05R
SPARTA         CLEAR     54  54 100 CALM      30.05S
$$
TNZ056-058-060-061-075>077-079-093>097-190700
...SOUTHERN MIDDLE TENNESSEE...

CITY           SKY/WX    TMP DP  RH WIND       PRES   REMARKS
COLUMBIA       MOCLDY    61  61 100 CALM      30.02R
FAYETTEVILLE   PTCLDY    63  57  82 NE6       30.03S
LEWISBURG      MOCLDY    62  59  90 CALM      30.03S
MCMINNVILLE    MOCLDY    61  61 100 CALM      30.05S
MURFREESBORO   PTCLDY    61  58  90 CALM      30.03S
SHELBYVILLE    MOCLDY    59  59 100 CALM      30.04S
TULLAHOMA      PTCLDY    63  59  88 E3        30.05S
WINCHESTER     PTCLDY    61  57  88 CALM      30.04S
$$


...KEY TO REMARKS...
VSB - VISIBILITY IN MILES
WCI - WIND CHILL INDEX
HX  - HEAT INDEX




USA.gov is the U.S. government's official web portal to all federal, state and local government web resources and services.